Location: *
(53.1381°N, 59.0043°E)
Time: 23:59:11
(UTC+00:00)

Daily predictions for brighter satellites

Satellite Brightness Start Highest point End
(mag) Time Altitude Azimuth Time Altitude Azimuth Time Altitude Azimuth
Nadezhda 4 Rocket 4.1 16:51:30 10° N 16:57:52 82° E 17:04:07 10° SSE
Cosmos 407 Rocket 4.2 16:54:12 10° SSE 16:59:00 35° ESE 17:03:50 10° NE
CENTAUR R/B 4.3 16:52:39 10° W 16:59:02 40° N 17:06:21 10° ENE
USA 215 3.3 16:53:10 10° ENE 16:59:42 66° SSE 17:06:13 10° SW
Cosmos 1844 3.9 16:54:10 10° NNW 16:59:47 70° NE 17:05:26 10° SE
Cosmos 2151 3.3 16:57:00 10° SSW 17:01:17 72° WNW 17:05:37 10° N
Cosmos 1500 Rocket 4.0 16:59:01 10° SSE 17:03:18 47° E 17:07:36 10° NNE
ERS-1 Rocket 3.1 16:58:37 10° SSE 17:03:37 69° ENE 17:08:39 10° NNW
MTI 3.9 17:00:39 10° NNE 17:03:50 80° WNW 17:06:59 10° SSW
COSMOS 2428 4.0 17:00:42 10° SSE 17:04:48 21° E 17:08:54 10° NE
ATLAS 3B R/B 4.4 16:59:32 10° WNW 17:05:34 34° N 17:11:36 10° ENE
Thor Agena Rocket 4.1 17:04:21 10° NNE 17:09:05 38° E 17:13:47 10° SSE
Lacrosse 5 rocket 2.3 17:04:45 10° WNW 17:09:20 56° N 17:13:51 10° E
Cosmos 1607 4.0 17:04:32 10° NW 17:10:44 88° NE 17:16:56 10° SE
USA 81 4.3 17:05:33 10° N 17:10:47 56° ENE 17:15:58 10° SSE
Cosmos 2360 Rocket 2.3 17:07:08 10° S 17:12:37 55° ESE 17:18:08 10° NE
Cosmos 2034 Rocket 4.1 17:06:25 10° S 17:12:41 82° E 17:19:02 10° NNE
Cosmos 2251 Rocket 4.3 17:07:35 10° SW 17:12:44 57° WNW 17:17:55 10° NNE
IGS 5A 3.5 17:09:19 10° SSE 17:13:28 69° ENE 17:17:37 10° N
DMSP B5D2-2 4.2 17:11:23 10° NNE 17:16:38 81° WNW 17:21:50 10° SSW
Cosmos 1980 Rocket 4.2 17:12:48 10° WSW 17:17:54 34° NW 17:22:59 10° NNE
Cosmos 1408 2.6 17:14:21 10° S 17:18:03 66° E 17:21:46 10° NNE
Cosmos 1092 Rocket 4.0 17:11:47 10° N 17:18:04 78° ENE 17:24:16 10° SSE
SPOT 5 3.0 17:15:41 10° SSE 17:20:40 73° ENE 17:25:25 10° NNW
CZ-2C R/B 2.6 17:17:49 10° NNE 17:23:04 68° ESE 17:28:13 10° S
Cosmos 1782 3.7 17:20:07 10° N 17:23:55 37° ENE 17:27:29 11° SE
SL-4 R/B 3.2 17:22:01 10° SSW 17:26:13 30° SSE 17:30:22 10° E
Cosmos 1707 Rocket 4.1 17:26:50 10° N 17:31:08 45° ENE 17:35:06 12° SE
Cosmos 1743 Rocket 3.6 17:26:48 10° S 17:31:11 87° W 17:35:33 10° N
Landsat 7 4.0 17:28:06 10° S 17:32:51 73° WSW 17:37:38 10° NNW
Cosmos 1356 Rocket 3.9 17:29:20 10° NNW 17:33:35 63° W 17:37:50 10° S
Cosmos 1606 2.7 17:32:39 10° NNW 17:36:28 87° W 17:40:11 10° S
Cosmos 292 Rocket 4.1 17:31:47 10° NNW 17:36:37 65° WSW 17:41:22 10° SSE
USA 267 4.0 17:30:49 10° SSE 17:36:56 41° SW 17:43:05 10° WNW
Cosmos 2219 Rocket 2.9 17:36:43 10° S 17:41:47 34° ESE 17:46:51 10° NE
ATLAS 5 CENTAUR R/B 3.7 17:37:17 10° NW 17:42:00 33° NNE 17:47:21 10° E
SPOT 1/Viking Rocket 4.0 17:38:17 10° S 17:43:25 62° WSW 17:48:36 10° NNW
Cosmos 2322 Rocket 3.0 17:38:49 10° SW 17:44:26 56° NW 17:50:04 10° NNE
Cosmos 1634 Rocket 4.1 17:39:23 10° S 17:45:35 67° E 17:51:46 10° NNE
Lacrosse 5 2.3 17:42:02 10° WNW 17:47:06 64° NNE 17:52:08 10° E
NOSS 3-1 (C) 3.6 17:41:53 10° SSW 17:47:19 49° ESE 17:53:36 10° NE
ASTEX 1 3.9 17:43:41 10° NNE 17:48:32 47° E 17:52:47 13° SSE
Cosmos 2026 Rocket 4.0 17:42:54 10° N 17:49:02 89° E 17:55:01 11° S
Cosmos 2278 Rocket 2.5 17:43:26 10° NNW 17:49:05 60° NE 17:54:10 13° SE
Cosmos 1263 4.1 17:46:08 10° N 17:49:07 88° E 17:51:45 14° S
Cosmos 2333 4.4 17:44:10 10° S 17:49:41 53° ESE 17:55:11 10° NE
Meteor 2-11 Rocket 4.5 17:45:37 10° S 17:51:42 89° W 17:57:51 10° N
SL-16 R/B 3.4 17:46:23 10° WSW 17:51:51 47° NW 17:57:21 10° NNE
ATLAS CENTAUR R/B 2.0 17:47:32 10° NW 17:52:22 63° NE 17:56:31 12° ESE
Mayak 0.4 17:50:00 10° NE 17:53:07 20° E 17:55:24 13° SE
Cosmos 1825 2.5 17:51:00 10° SSW 17:54:45 65° WNW 17:58:31 10° N
Cosmos 1805 Rocket 3.6 17:51:32 10° S 17:55:52 67° E 18:00:11 10° NNE
Cosmos 2333 Rocket 2.7 17:50:40 10° S 17:56:00 42° ESE 18:01:19 10° NE
Cosmos 1818 4.0 17:51:01 10° NW 17:56:22 56° SW 18:00:52 14° SSE
Cosmos 1844 Rocket 3.6 17:52:25 10° NW 17:57:46 43° WSW 18:03:02 10° S
Meteor 2-3 Rocket 3.8 17:54:19 10° S 18:00:08 85° ESE 18:06:00 10° NNE
ISS -3.7 17:57:11 10° WSW 18:00:28 53° SSE 18:03:43 10° E
Cosmos 1655 Rocket 4.2 17:55:33 10° N 18:01:48 64° ENE 18:07:01 15° SSE
Terra 2.0 17:57:42 12° S 18:02:03 73° WSW 18:06:50 10° NNW
MOS 1 Rocket 3.4 17:57:50 10° NNE 18:02:15 54° E 18:06:18 13° S
Cosmos 44 Rocket 4.1 18:00:24 10° WSW 18:05:26 57° NW 18:10:22 10° NE
Cosmos 2322 3.7 18:00:11 10° SSW 18:05:51 82° ESE 18:11:34 10° NNE
Cosmos 1023 Rocket 4.4 18:01:53 10° SSW 18:07:02 78° ESE 18:12:18 10° NNE
NOSS 8 (A) 4.5 18:07:05 10° SSW 18:10:07 44° SE 18:13:09 10° ENE
Cosmos 2369 Rocket 4.4 18:08:29 10° NNW 18:12:42 20° NNE 18:16:53 10° ENE
EP 3 4.4 18:13:48 32° SE 18:13:58 32° SE 18:16:04 10° ENE
Gbstr 26 Del rocket 2.5 18:10:23 10° W 18:14:13 73° S 18:17:57 10° E
Cosmos 1666 Rocket 3.7 18:13:06 16° S 18:16:38 62° E 18:21:05 10° NNE
Cosmos 1633 Rocket 3.3 18:14:05 17° SSE 18:17:12 52° E 18:21:27 10° NNE
Cosmos 676 Rocket 4.0 18:12:43 10° SSW 18:17:56 79° ESE 18:23:14 10° NNE
Spot 4 4.1 18:17:34 17° SE 18:21:07 59° ENE 18:25:49 10° N
SL-24 R/B - RUBIN 2 4.4 18:16:27 10° NW 18:22:04 79° NE 18:27:24 14° SE
Cosmos 1867 4.2 18:20:14 14° S 18:24:27 37° ESE 18:29:28 10° NE
USA 229 DEB 3.7 18:19:23 10° SW 18:26:04 88° SE 18:33:07 10° NE
ALOS 2 3.9 18:22:55 14° ESE 18:26:06 31° ENE 18:29:59 10° N
USA 229 3.7 18:19:30 10° SW 18:26:11 87° SE 18:33:13 10° NE
Cosmos 1862 Rocket 3.6 18:24:17 10° N 18:28:37 70° ENE 18:31:29 21° SSE
NOSS 3-1 (A) 3.4 18:23:39 10° SSW 18:29:14 60° SE 18:35:45 10° NE
Cosmos 1954 Rocket 4.0 18:25:54 10° SSW 18:31:09 90° W 18:36:30 10° NNE
Sich 1 3.1 18:29:03 13° SSW 18:32:54 76° WNW 18:37:12 10° N
Landsat 4 4.1 18:29:22 10° N 18:33:04 63° WNW 18:36:36 11° SSW
Cosmos 1140 Rocket 3.7 18:28:27 10° SSW 18:33:37 71° WNW 18:38:52 10° NNE
Cosmos 540 Rocket 4.4 18:28:52 10° NNW 18:33:44 41° NE 18:37:53 14° ESE
GP-B 3.9 18:29:36 10° NNE 18:33:47 39° E 18:36:22 20° SE
ARGOS Delta rocket 4.2 18:31:40 19° SE 18:34:40 51° ENE 18:39:10 10° N
IRAS Rocket 4.5 18:30:23 17° S 18:34:48 66° WSW 18:40:27 10° NNW
Cosmos 1470 Rocket 4.0 18:34:01 21° SSE 18:36:35 46° E 18:40:49 10° NNE
Cosmos 1850 Rocket 4.3 18:34:38 17° S 18:38:31 52° ESE 18:43:43 10° NNE
Cosmos 2266 Rocket 4.1 18:33:27 10° N 18:39:53 77° ENE 18:44:31 19° SSE
NOSS 2-3 (E) 4.3 18:37:14 17° S 18:40:22 41° ESE 18:45:25 10° NE
ERS-2 4.2 18:37:56 11° ESE 18:40:29 20° ENE 18:43:14 10° NNE
USA 215 3.6 18:36:18 10° ENE 18:42:50 72° NNW 18:49:22 10° W
NOSS 2-3 (D) 4.3 18:40:18 18° S 18:43:15 41° ESE 18:48:17 10° NE
SL-16 R/B 3.7 18:42:23 16° SE 18:44:39 20° E 18:48:35 10° NE
COSMOS 2428 2.8 18:42:37 10° SSW 18:48:22 86° WNW 18:54:08 10° NNE
Lacrosse 5 rocket 1.5 18:44:09 10° WNW 18:48:47 72° SSW 18:51:55 19° SE
SeaSat 1 3.8 18:46:47 10° NE 18:50:40 23° ESE 18:52:24 19° SE
CENTAUR R/B 4.2 18:44:32 10° NW 18:51:28 43° NNE 18:59:17 10° E
Cosmos 1812 2.8 18:48:33 10° N 18:52:25 69° ENE 18:54:27 27° SSE
Cosmos 1980 3.9 18:49:05 18° S 18:53:06 52° ESE 18:58:36 10° NE
Cosmos 2279 Rocket 4.3 18:49:42 11° SSW 18:55:43 68° WNW 19:01:56 10° N
Cosmos 2360 Rocket 3.7 18:51:40 10° WSW 18:56:53 37° NW 19:02:08 10° NNE
Cosmos 1633 2.4 18:55:18 27° S 18:57:08 78° E 19:00:44 10° NNE
ATLAS 3B R/B 3.9 18:51:38 10° NW 18:57:51 39° NNE 19:04:05 10° E
Cosmos 841 Rocket 3.5 18:52:52 10° NNW 18:58:02 74° ENE 19:01:27 22° SE
Cosmos 2237 Rocket 2.4 18:56:06 19° S 18:59:58 54° ESE 19:05:27 10° NE
Helios 1A 3.3 19:00:25 23° S 19:02:50 59° WSW 19:06:59 10° NNW
Cosmos 1763 Rocket 3.6 18:58:34 10° NNW 19:03:43 68° WSW 19:06:56 23° S
Nimbus 7 Rocket 4.4 18:58:43 10° NNE 19:04:41 74° ESE 19:09:06 19° S
SL-4 R/B 2.3 19:00:45 10° WSW 19:05:33 64° SSE 19:10:12 10° E
Cosmos 1315 Rocket 3.3 19:05:22 10° N 19:09:13 49° ENE 19:11:16 25° SE
Cosmos 1400 Rocket 2.9 19:05:51 10° NNW 19:10:01 74° WSW 19:12:09 27° S
BREEZE-M DEB (TANK) 2.8 19:08:58 10° W 19:11:44 49° S 19:19:28 10° ESE
Cosmos 1862 3.6 19:11:38 20° SSW 19:14:15 62° WNW 19:18:14 10° N
NOSS 0 Rocket 3.9 19:09:34 13° SSW 19:15:09 79° ESE 19:21:20 10° NE
USA 238 DEB 4.2 19:08:18 10° NW 19:15:22 66° NE 19:22:40 10° ESE
USA 238 4.2 19:08:24 10° NW 19:15:28 66° NE 19:22:45 10° ESE
JB-3 4.4 19:18:00 10° NNE 19:22:12 82° ESE 19:24:23 27° S
Meteor 1-29 3.5 19:21:01 10° NNE 19:24:19 42° E 19:25:20 32° SE
Cosmos 2219 Rocket 2.9 19:19:58 10° SW 19:25:33 55° NW 19:31:08 10° NNE
NOSS 2-3 (C) 3.8 19:21:20 12° SW 19:25:34 80° SE 19:31:13 10° NE
Cosmos 1943 Rocket 3.2 19:21:19 10° NNW 19:26:32 41° NE 19:31:44 10° ESE
Cosmos 192 4.3 19:22:28 10° NNW 19:27:24 75° WSW 19:30:07 27° SSE
ATLAS 5 CENTAUR R/B 2.4 19:21:55 10° NW 19:27:27 74° NE 19:33:37 11° SE
Mayak -0.7 19:24:53 10° N 19:29:04 58° WNW 19:31:59 19° SW
Cosmos 2297 3.7 19:23:26 10° NNW 19:29:07 80° WSW 19:32:39 24° SSE
Lacrosse 5 2.0 19:25:08 10° WNW 19:30:07 57° SW 19:33:04 24° SE
ATLAS CENTAUR R/B 2.8 19:27:00 10° WNW 19:31:03 28° WSW 19:32:42 22° SSW
SWAS 4.4 19:27:39 10° NNW 19:31:58 83° ENE 19:34:18 26° SE
Cosmos 1437 3.1 19:32:11 38° SE 19:32:49 44° E 19:35:47 10° NNE
Cosmos 2278 Rocket 3.4 19:27:57 10° NW 19:32:52 31° WSW 19:36:00 18° SSW
Helios 1B rocket 2.4 19:30:39 10° NNE 19:34:49 80° ESE 19:36:53 29° S
COSMOS 2455 3.0 19:32:44 23° S 19:36:26 54° ESE 19:42:19 10° NE
ISS -3.9 19:33:41 10° W 19:37:00 66° S 19:39:51 13° ESE
NOSS 3-1 (C) 4.2 19:32:20 10° WSW 19:38:09 56° NNW 19:45:02 10° NE
Lacrosse 4 Rocket 2.1 19:37:29 29° SSE 19:39:06 40° ESE 19:43:15 10° NE
Cosmos 2333 Rocket 3.2 19:34:46 10° WSW 19:40:16 47° NW 19:45:46 10° NNE
Terra 4.3 19:38:56 10° WSW 19:40:41 12° W 19:42:24 10° WNW
Meteor 1-18 Rocket 4.3 19:35:04 10° N 19:40:42 70° ENE 19:44:11 23° SSE
Cosmos 1703 Rocket 3.9 19:38:35 10° NNW 19:42:58 59° W 19:45:13 27° SSW
Okean 1-7 3.3 19:46:48 10° NNW 19:51:03 59° W 19:53:05 29° SSW
Cosmos 1933 Rocket 4.5 19:53:41 18° SW 19:56:37 42° WNW 20:00:49 10° N
CZ-4C R/B 4.5 19:54:06 19° SE 19:56:57 44° ENE 20:01:11 10° N
Cosmos 2369 Rocket 2.7 19:52:17 10° NNW 19:57:58 59° NE 20:03:04 13° SE
Gbstr 26 Del rocket 2.8 19:57:10 10° W 20:00:46 49° SSW 20:02:26 28° SE
NOSS 3-2 (C) 4.2 19:54:17 10° NW 20:01:28 71° NE 20:09:36 10° ESE
ALOS 2 3.5 20:00:19 24° SSW 20:02:21 39° W 20:06:30 10° NNW
Cosmos 2221 Rocket 3.6 19:59:19 10° NNW 20:03:52 84° W 20:06:04 30° S
Cosmos 1867 4.1 20:02:29 10° WSW 20:07:54 59° NW 20:13:21 10° NE
H-2A R/B 4.3 20:06:10 10° ESE 20:09:33 21° ENE 20:12:56 10° N
Okean 1 3.3 20:07:46 10° NNW 20:11:50 74° W 20:13:31 33° S
ERS-2 2.6 20:12:34 33° SSW 20:13:50 48° W 20:17:25 10° NNW
Cosmos 540 Rocket 4.2 20:10:36 10° NW 20:15:20 38° WSW 20:17:41 25° SSW
NOSS 3-1 (A) 4.4 20:14:32 10° WSW 20:20:22 50° NNW 20:27:14 10° NE
Cosmos 1869 Rocket 3.8 20:18:54 26° SSW 20:21:13 61° WNW 20:25:34 10° N
CZ-4 R/B 3.8 20:16:54 10° NNE 20:21:37 80° WNW 20:24:17 26° SSW
Cosmos 2285 Rocket 4.1 20:19:38 19° SW 20:24:23 74° WNW 20:30:43 10° NNE
USA 215 3.7 20:19:09 10° E 20:25:37 66° N 20:32:06 10° WNW
Lacrosse 5 rocket 3.0 20:24:06 10° W 20:27:24 20° SW 20:27:32 20° SW
SL-16 R/B 2.2 20:24:15 22° SSW 20:28:03 89° NW 20:33:46 10° NNE
SeaSat 1 2.6 20:23:42 10° NNE 20:28:40 75° NW 20:32:10 20° SW
Cosmos 2263 4.4 20:24:26 10° NNW 20:30:07 72° NE 20:35:09 13° SE
Iridium 2 3.7 20:30:18 34° S 20:31:52 78° E 20:35:41 10° N
Meteor 2-4 Rocket 3.7 20:31:25 10° NNW 20:37:16 87° ENE 20:40:57 23° SSE
Meteor 1-13 Rocket 4.3 20:32:19 10° N 20:37:54 76° ENE 20:41:41 21° SSE
NOSS 3-2 (A) 4.0 20:32:33 10° NW 20:39:50 71° SW 20:48:01 10° SSE
Cosmos 1486 Rocket 4.0 20:36:42 25° SSW 20:39:55 90° NW 20:45:15 10° NNE
Cosmos 1553 Rocket 4.1 20:38:53 23° SSW 20:42:49 71° WNW 20:48:58 10° N
CENTAUR R/B 3.2 20:35:32 10° NW 20:43:16 79° NE 20:51:52 10° SE
Meteor 2-21 4.4 20:37:59 10° NNW 20:44:04 86° W 20:48:07 23° S
Cosmos 2237 Rocket 3.4 20:39:04 10° WSW 20:44:16 38° NW 20:49:32 10° NNE
Cosmos 1943 4.2 20:41:55 20° SSE 20:44:57 34° ESE 20:50:01 10° NE
BREEZE-M DEB (TANK) 3.7 20:45:20 30° S 20:45:20 30° S 20:50:46 10° SE
SL-4 R/B 2.2 20:40:26 10° W 20:45:13 73° S 20:49:45 10° ESE
Cosmos 1500 4.2 20:46:20 23° SE 20:48:08 38° E 20:51:43 10° NNE
S3M 4.1 20:44:01 23° SSW 20:48:13 79° WNW 20:54:39 10° N
Cosmos 1656 Rocket 4.2 20:43:09 10° NNW 20:48:49 60° NE 20:54:26 10° SE
Meteor 2-21 Rocket 4.4 20:42:54 10° N 20:49:01 84° E 20:53:19 20° SSE
ATLAS 3B R/B 2.6 20:42:36 10° NW 20:49:19 86° NE 20:56:04 10° SE
Cosmos 1975 Rocket 4.3 20:46:52 10° N 20:50:55 37° ENE 20:54:31 12° SE
Falcon 9 debris 4.3 20:51:18 27° SE 20:51:18 27° SE 20:54:08 10° E
Cosmos 1503 Rocket 4.1 20:48:40 26° S 20:51:41 69° ESE 20:57:00 10° NNE
Cosmos 1674 Rocket 3.6 20:47:50 10° NNW 20:52:19 73° W 20:54:38 28° S
Cosmos 968 Rocket 3.6 20:51:12 26° S 20:54:06 66° ESE 20:59:13 10° NNE
Unknown 4.1 20:55:38 28° SSE 20:55:38 28° SSE 20:58:38 10° E
Cosmos 1709 Rocket 3.9 20:50:21 10° N 20:56:36 87° W 21:00:53 21° S
SL-19 R/B 4.4 20:52:58 10° NNE 20:58:39 69° WNW 21:02:15 22° SSW
Cosmos 1733 Rocket 3.1 20:56:29 28° SSW 20:58:47 76° WNW 21:03:13 10° N
NOSS 2-2 (E) 4.0 20:58:39 29° S 21:00:02 39° SE 21:04:11 10° NE
Mayak 1.6 21:03:01 10° NW 21:03:47 10° NW 21:04:34 10° WNW
USA 238 DEB 4.2 20:59:29 10° NW 21:06:14 46° WSW 21:11:18 18° S
USA 238 4.2 20:59:35 10° NW 21:06:20 46° WSW 21:11:26 18° S
SL-16 R/B 3.0 21:00:49 10° SE 21:06:54 62° ENE 21:13:01 10° NNW
Cosmos 1378 Rocket 3.5 21:03:13 10° NNW 21:07:32 72° W 21:09:52 26° S
Cosmos 1515 4.0 21:05:15 10° NNW 21:08:57 50° W 21:10:31 29° SSW
Cosmos 1943 Rocket 2.5 21:05:08 10° NW 21:10:25 47° WSW 21:13:36 23° S
Resurs 1-4 Rocket 3.4 21:05:52 10° NNE 21:10:34 31° E 21:14:40 13° SSE
ATLAS 2AS CENTAUR R/B 3.3 21:06:18 21° SSW 21:11:52 58° SE 21:19:42 10° NE
ATLAS 5 CENTAUR R/B 3.1 21:06:49 10° WNW 21:11:57 33° WSW 21:15:05 22° SSW
Unknown 4.3 21:11:30 27° SSE 21:12:09 29° SSE 21:15:26 10° E
Lacrosse 5 3.5 21:09:17 10° W 21:12:12 16° SW 21:12:12 16° SW
Cosmos 1354 Rocket 4.0 21:09:00 24° SSW 21:12:19 88° ESE 21:17:41 10° NNE
ISS -2.7 21:10:25 10° W 21:12:34 27° SW 21:12:34 27° SW
CZ-4B R/B 4.5 21:15:01 10° ENE 21:15:41 11° ENE 21:16:21 10° NE
NOSS 2-2 (D) 3.8 21:14:54 28° S 21:16:30 44° SE 21:20:42 10° NE
Lacrosse 4 Rocket 2.7 21:13:46 11° WSW 21:17:50 40° NW 21:22:01 10° NNE
CZ-4B R/B 3.4 21:14:01 10° NNE 21:19:06 86° ESE 21:22:12 23° SSW
OPS 8737 4.3 21:17:42 28° SW 21:19:26 75° SE 21:22:32 10° NE
COSMOS 2455 3.8 21:16:47 10° WSW 21:22:34 45° NW 21:28:23 10° NE
Cosmos 1908 Rocket 3.5 21:22:38 24° S 21:25:13 86° E 21:29:42 10° NNE
Meteor 1-11 Rocket 3.7 21:24:06 22° SSW 21:27:55 88° WNW 21:33:43 10° NNE
Okean 2 Rocket 4.5 21:27:36 12° SSE 21:31:13 32° E 21:35:10 10° NNE
Cosmos 220 Rocket 4.4 21:27:06 10° NW 21:31:23 47° WSW 21:33:50 23° S
Cosmos 2098 Rocket 3.2 21:28:51 10° NNW 21:31:40 29° W 21:32:28 25° WSW
Cosmos 2315 Rocket 4.1 21:27:50 20° SSW 21:32:23 79° WNW 21:38:49 10° N
Cosmos 1743 4.4 21:30:04 11° SE 21:33:07 27° E 21:36:24 10° NNE
CZ-4C R/B 4.1 21:34:24 10° SE 21:37:45 43° ENE 21:41:13 10° N
Unknown 4.5 21:36:28 24° S 21:38:08 33° SSE 21:41:52 10° E
BREEZE M DEB (TANK) 4.2 21:34:26 17° SW 21:38:10 58° SSE 21:55:33 10° E
CZ-2D R/B 2.8 21:34:41 10° NNE 21:39:59 50° E 21:44:27 15° S
Cosmos 2369 Rocket 3.1 21:36:43 10° NW 21:41:43 32° WSW 21:44:48 19° SSW
Unknown 4.4 21:42:52 23° SSW 21:44:45 35° SSE 21:48:34 10° E
H-2A R/B 2.2 21:41:49 18° S 21:45:08 68° WSW 21:49:39 10° NNW
Unknown 4.4 21:44:27 23° SSW 21:46:24 36° SSE 21:50:14 10° E
Unknown 3.3 21:45:17 24° SW 21:47:05 51° SSE 21:50:28 10° E
Unknown 4.3 21:45:15 23° SSW 21:47:10 36° SSE 21:50:56 10° E
Unknown 4.3 21:46:03 22° SSW 21:48:04 37° SSE 21:51:54 10° E
UNK 3.7 21:45:50 16° S 21:49:29 75° WSW 21:54:07 10° NNW
Unknown 4.3 21:47:39 22° SSW 21:49:43 37° SSE 21:53:34 10° E
SAR-Lupe-4 4.0 21:48:18 23° SSW 21:50:11 46° W 21:53:41 10° NNW
Cosmos 1666 2.8 21:47:57 20° S 21:50:28 72° E 21:54:20 10° NNE
NOSS 2-2 (C) 3.3 21:48:23 21° SW 21:50:49 82° SE 21:55:22 10° NE
Unknown 4.2 21:49:17 22° SSW 21:51:26 39° SSE 21:55:19 10° E
NOSS 3-2 (C) 4.3 21:45:22 10° NW 21:52:23 45° WSW 22:00:06 10° S
Iridium 96 4.2 21:51:34 28° SSW 21:52:48 52° W 21:55:29 10° N
Unknown 4.3 21:50:49 22° SSW 21:53:00 39° SSE 21:56:53 10° E
Unknown 2.7 21:52:19 25° SW 21:53:47 58° SSE 21:56:40 10° E
Unknown 4.2 21:52:29 21° SSW 21:54:45 40° SSE 21:58:39 10° E
Cosmos 773 Rocket 4.4 21:50:46 10° NW 21:55:48 46° WSW 21:59:41 16° S
BREEZE-M DEB (TANK) 4.3 21:51:04 10° W 21:56:07 23° SW 21:57:58 16° S
Unknown 4.2 21:54:01 21° SSW 21:56:19 40° SSE 22:00:13 10° E
Unknown 4.2 21:55:37 21° SSW 21:57:59 41° SSE 22:01:54 10° E
FALCON 9 DEB 3.2 21:56:21 20° SW 21:58:34 58° SSE 22:01:58 10° E
Cosmos 1603 4.0 21:54:28 16° SW 21:59:03 63° NW 22:04:41 10° NNE
Cosmos 1782 Rocket 3.6 21:56:10 19° SSW 21:59:17 77° W 22:03:49 10° N
Unknown 4.1 22:00:26 20° SW 22:02:58 43° SSE 22:06:55 10° E
Cosmos 2184 Rocket 4.0 21:56:44 10° NNW 22:03:03 72° W 22:08:52 12° S
Unknown 4.1 22:01:59 19° SW 22:04:35 44° SSE 22:08:33 10° E
Cosmos 2084 4.0 22:00:22 10° NW 22:04:37 62° NE 22:08:44 10° ESE
Cosmos 1536 3.6 22:03:24 18° SW 22:06:00 40° WNW 22:09:51 10° N
Unknown 4.1 22:03:35 19° SW 22:06:14 45° SSE 22:10:13 10° E
AQUA 4.0 22:03:05 10° NNE 22:07:51 68° ESE 22:11:58 14° S
Unknown 4.0 22:05:12 19° SW 22:07:55 46° SSE 22:11:54 10° E
Cosmos 1346 Rocket 3.1 22:05:18 15° S 22:08:30 64° E 22:12:28 10° NNE
USA 215 3.2 22:02:01 10° ESE 22:08:35 84° SSW 22:15:10 10° WNW
Cosmos 1340 3.1 22:07:32 14° S 22:10:36 55° E 22:14:18 10° NNE
Unknown 4.0 22:08:23 18° SW 22:11:15 47° SSE 22:15:15 10° E
Unknown 4.0 22:09:58 17° SW 22:12:54 48° SSE 22:16:56 10° E
SL-16 R/B 3.9 22:08:13 10° W 22:12:56 26° NW 22:17:41 10° NNE
Unknown 3.9 22:11:35 17° SW 22:14:33 49° SSE 22:18:33 10° E
Unknown 3.2 22:12:56 14° WSW 22:15:50 66° SSE 22:19:21 10° E
Unknown 3.9 22:13:10 17° SW 22:16:10 49° SSE 22:20:10 10° E
NOSS 3-4 (A) 3.6 22:11:16 16° SSW 22:16:18 72° SE 22:22:49 10° NE
NOSS 3-4 (C) 3.6 22:11:22 16° SSW 22:16:24 71° SE 22:22:54 10° NE
Unknown 3.9 22:14:46 16° SW 22:17:50 51° SSE 22:21:53 10° E
Unknown 3.9 22:16:17 16° SW 22:19:21 49° SSE 22:23:23 10° E
ARIANE 5 R/B 3.5 22:14:34 10° NNE 22:19:25 42° E 22:24:18 10° SSE
Unknown 3.6 22:16:28 15° SW 22:19:31 56° SSE 22:23:21 10° E
Cosmos 1025 Rocket 3.4 22:15:18 10° N 22:19:42 69° ENE 22:24:05 10° SSE
CBERS-1 4.1 22:16:06 10° NNE 22:21:17 80° ESE 22:26:00 12° SSW
Unknown 3.9 22:19:27 15° SW 22:22:39 51° SSE 22:26:42 10° E
MOZ.5/SAFIR/RUBIN 5/SL-8 4.4 22:19:10 15° SSW 22:22:48 41° W 22:27:18 10° NNW
Unknown 3.9 22:21:05 15° SW 22:24:20 52° SSE 22:28:23 10° E
Landsat 5 3.5 22:20:13 10° SSE 22:24:39 78° WSW 22:28:59 10° NNW
SL-4 R/B 2.7 22:20:18 10° W 22:24:39 39° SSW 22:28:45 10° SE
Cosmos 923 Rocket 4.1 22:19:32 10° NNW 22:24:50 66° WSW 22:30:07 10° SSE
Sich 1 Rocket 4.1 22:22:16 15° SSW 22:25:51 52° WNW 22:30:23 10° N
Unknown 3.5 22:22:46 14° WSW 22:26:01 60° SSE 22:29:49 10° E
Unknown 3.8 22:22:44 14° SW 22:26:08 55° SSE 22:30:12 10° E
Unknown 3.9 22:24:15 14° SW 22:27:38 54° SSE 22:31:42 10° E
Falcon 9 debris 3.1 22:24:33 11° WSW 22:27:54 74° SSE 22:31:22 10° E
Cosmos 1975 Rocket 4.1 22:24:57 10° NNW 22:28:41 29° W 22:31:38 14° SW
Cosmos 1943 3.7 22:23:43 12° SW 22:28:49 55° NW 22:34:25 10° NNE
Unknown 3.8 22:25:50 14° SW 22:29:19 55° SSE 22:33:22 10° E
SL-08 R/B 3.3 22:24:50 10° S 22:29:30 68° WSW 22:34:18 10° NNW
Unknown 3.0 22:28:56 10° WSW 22:32:22 76° SSE 22:35:48 10° E
Unknown 3.8 22:29:02 13° SW 22:32:36 56° SSE 22:36:41 10° E
NPP 3.8 22:27:33 10° NNE 22:32:55 70° WNW 22:37:52 12° SSW
CENTAUR R/B 3.6 22:26:29 10° NW 22:33:46 40° WSW 22:41:35 10° S
Unknown 3.8 22:30:38 13° SW 22:34:16 57° SSE 22:38:21 10° E
Unknown 3.8 22:32:14 12° SW 22:35:56 58° SSE 22:40:01 10° E
Unknown 3.8 22:33:49 12° WSW 22:37:34 59° SSE 22:41:40 10° E
Cosmos 1689 Rocket 3.0 22:35:42 10° SSE 22:38:35 50° ENE 22:41:30 10° N
Okean 2 4.0 22:34:46 10° NNW 22:38:41 39° W 22:42:19 12° SSW
Unknown 3.8 22:35:25 12° WSW 22:39:15 60° SSE 22:43:20 10° E
ATLAS 3B R/B 3.5 22:33:52 10° WNW 22:39:22 28° WSW 22:44:54 10° S
deb Chang Zheng 4 3.6 22:37:55 10° NNE 22:42:12 76° WNW 22:46:16 11° SSW
EXPRESS MD2 2.8 22:40:40 11° WSW 22:42:48 43° S 22:46:11 10° ESE
Unknown 3.7 22:38:45 10° WSW 22:42:50 65° SSE 22:46:58 10° E
Unknown 3.7 22:40:19 10° WSW 22:44:25 65° SSE 22:48:32 10° E
Unknown 3.7 22:41:50 10° WSW 22:45:57 64° SSE 22:50:04 10° E
Unknown 3.7 22:43:25 10° WSW 22:47:32 64° SSE 22:51:40 10° E
CZ-4B R/B 1.1 22:44:30 10° S 22:47:37 75° WSW 22:50:44 10° NNW
Cosmos 405 3.2 22:46:10 10° N 22:49:42 72° ENE 22:53:13 10° SSE
Cosmos 1680 Rocket 3.7 22:44:44 10° NNW 22:49:55 54° WSW 22:55:03 10° S
Unknown 3.3 22:46:11 10° WSW 22:49:56 75° SSE 22:53:42 10° E
RESURS DK-1 2.6 22:46:02 11° SSW 22:49:58 70° ESE 22:54:08 10° NE
Cosmos 1975 3.0 22:46:30 11° SSW 22:50:23 64° WNW 22:54:29 10° N
Resurs 1-4 Rocket 2.6 22:45:30 10° N 22:50:39 51° WNW 22:55:45 10° SW
Unknown 3.7 22:46:45 10° WSW 22:50:52 66° SSE 22:54:59 10° E
SL-16 R/B 3.4 22:45:37 10° SSW 22:50:56 31° W 22:56:22 10° NNW
Unknown 3.6 22:48:16 10° WSW 22:52:18 69° SSE 22:56:22 10° E
Unknown 3.7 22:48:22 10° WSW 22:52:29 67° SSE 22:56:37 10° E
Cosmos 1656 4.3 22:47:04 10° NNW 22:52:46 65° NE 22:58:26 10° SE
Unknown 3.7 22:50:02 10° WSW 22:54:10 68° SSE 22:58:18 10° E
ADEOS II 2.4 22:50:15 10° NNE 22:55:32 71° ESE 23:00:47 10° S
Unknown 3.7 22:51:43 10° WSW 22:55:51 68° SSE 22:59:59 10° E
SJ 16-02 2.9 22:52:04 10° SSE 22:55:54 30° ESE 22:59:46 10° NE
Lacrosse 4 Rocket 4.1 22:55:04 10° NW 22:57:41 15° NNW 23:00:17 10° NNE
Nadezhda 1 Rocket 4.3 22:52:58 10° SSW 22:59:16 59° WNW 23:05:35 10° N
IRS-P3 4.3 22:55:13 10° NNE 23:00:31 65° WNW 23:05:49 10° SSW
Aureole 2 Rocket 2.2 22:57:27 10° NNW 23:00:45 62° WSW 23:03:49 10° SSE
Cosmos 44 3.5 22:56:07 10° NW 23:00:51 71° NE 23:05:17 10° SE
Cosmos 1707 3.4 22:58:30 10° N 23:02:20 59° ENE 23:06:09 10° SSE
Unknown 3.6 22:58:18 10° WSW 23:02:27 72° SSE 23:06:36 10° E
Cosmos 1378 3.5 22:59:00 10° NNW 23:02:34 44° W 23:06:06 10° SSW
ATLAS 2AS CENTAUR R/B 3.5 22:55:03 10° WSW 23:03:04 61° NNW 23:10:58 10° NE
Cosmos 1898 Rocket 4.1 22:58:32 10° S 23:03:44 55° ESE 23:08:56 10° NNE
Unknown 3.6 22:59:58 10° WSW 23:04:06 72° SSE 23:08:15 10° E
Unknown 3.6 23:01:39 10° WSW 23:05:47 73° SSE 23:09:56 10° E
IRS-1D 3.7 23:01:06 10° N 23:05:58 56° WNW 23:10:48 10° SW
Unknown 3.6 23:03:18 10° WSW 23:07:27 74° SSE 23:11:37 10° E
Unknown 3.6 23:03:43 10° WSW 23:07:54 74° SSE 23:12:04 10° E
Cosmos 1743 3.8 23:05:19 10° SW 23:08:49 32° WNW 23:12:21 10° N
Meteor 2-9 Rocket 4.2 23:03:27 10° SSW 23:08:56 86° WNW 23:14:36 10° NNE
Unknown 3.6 23:04:57 10° WSW 23:09:06 75° SSE 23:13:15 10° E
Okean 2 Rocket 4.0 23:05:11 10° SW 23:09:16 35° WNW 23:13:22 10° N
Cosmos 2366 rocket 4.1 23:04:14 10° N 23:10:26 84° E 23:16:35 10° SSE
Unknown 3.6 23:08:17 10° WSW 23:12:26 76° SSE 23:16:36 10° E
Cosmos 1892 Rocket 4.2 23:09:12 10° N 23:13:31 58° ENE 23:17:49 10° SSE
Cosmos 2341 Rocket 4.2 23:07:25 10° NNW 23:13:40 59° W 23:19:55 10° S
Starlink (trailer) 3.6 23:09:58 10° WSW 23:14:06 77° SSE 23:18:16 10° E
Unknown 3.6 23:11:37 10° WSW 23:15:46 78° SSE 23:19:55 10° E
Cosmos 2369 4.2 23:11:02 10° NNW 23:16:43 69° NE 23:22:21 10° SE
Unknown 3.6 23:13:16 10° WSW 23:17:24 78° S 23:21:35 10° E
CZ-2D R/B 3.2 23:15:02 10° N 23:19:54 34° WNW 23:24:46 10° WSW
